THORAD AGENA D DEB

Satellite information

Favourite Embed

Satellite Type and Status

DEBRISIN ORBIT

Key statistics

Satellite THORAD AGENA D DEB at a glance.

Uptime

20338

Days in orbit

Revolutions

≈ 13.7

Per day

Orbit

SSO

Sun Synchronous Orbit

Inclination

100.0

Latest

Satellite identification and parameters

Extended collection of information and parameters for THORAD AGENA D DEB.

Object identification

Identified? True

Debris? True

Object name: THORAD AGENA D DEB

International designator: 1970-025KQ

Object number (NORAD): 5359

Object ID (CCSDS): 5359

Country: UNITED STATES OF AMERICA (US)

Current information (Y/N): Y

RCS size: SMALL

Orbital parameters

Period: 104.834 minutes

Inclination: 100.0031 deg

SMA: 7364.808 km

Apoapsis: 988.895 km

Periapsis: 984.451 km

RAAN: 294.8721 deg

Eccentricy: 0.00030172

Argument of periapsis: 151.3701 deg

Mean anomaly: 29.7672 deg

Mean motion: 13.73601137 rev/day

Mean motion (dot): 0.00001078 rev/day2

B* drag term: 0.0012079258 1/REarth

Two-line elements (TLE)

Creation date: Dec. 11, 2025, 7:14 p.m.

Reference frame: TEME

Reference center: EARTH

Epoch: Dec. 11, 2025, 3:01 p.m. UTC

TLE line 0: 0 THORAD AGENA D DEB

TLE line 1: 1 05359U 70025KQ 25345.62572103 .00001078 00000-0 12079-2 0 9998

TLE line 2: 2 05359 100.0031 294.8721 0003017 151.3701 29.7672 13.73601137767589

Live tracking on map

Real-time ground track for satellite THORAD AGENA D DEB.

In-orbit conjunctions

A list of the most updated potential collisions computed for object THORAD AGENA D DEB.

Target Orbit TCA Probability of collision Miss distance Type
BADR B SSO 2025-04-02 06:30:54 0.000321156 440.0 (m) PAYLOAD

Associated space launch

Meteorological research and development satellite

THORAD AGENA D DEB was lifted into orbit during the mission ‘Thorad SLV-2G Agena D | Nimbus 4’, on board a Thorad SLV-2G Agena D space rocket.

The launch took place on April 8, 1970, 8:17 a.m. from Space Launch Complex 2E.

For more information about the launch, click the button.

Launch to space Thorad SLV-2G Agena D | Nimbus 4
Thorad SLV-2G Agena D | Nimbus 4

Agency: N/A

Status: Launch Successful

Launch date: April 8, 1970, 8:17 a.m. UTC

Rocket: Thorad SLV-2G Agena D

Launch pad: Space Launch Complex 2E

Location: Vandenberg SFB, CA, USA

...

Latest news about this satellite

There are no fresh news available about this satellite. Check back as we update our databases every day.


Newsletter sign-up

Weekly statistics, charts and insights to help you stay on top of the space industry.